格洛纳斯M-754 COSMOS 2492 [GLONASS-M]

导读

COSMOS 2492是俄罗斯在2014年3月23日发射的GLONASS-M系列导航卫星,隶属于格洛纳斯全球卫星导航系统,接替原属独立国家联合体(CIS)苏联时代的导航卫星组网。GLONASS作为俄罗斯自主可控的全球导航系统,打破美国GPS垄断,该卫星运行于约19100公里中地球轨道,轨道周期约11小时15分,携带高精度铯原子钟,为全球军民用户提供定位、导航与授时服务,延续GLONASS系统星座补网与服务稳定性。

Basic Information
目录编号:
39620
目录名称:
COSMOS 2492 (GLONASS)
国际标识:
2014-012A
轨道中心:
EARTH
卫星名称:
格洛纳斯M-754
卫星全名:
格洛纳斯M-754 COSMOS 2492 [GLONASS-M]
卫星状态:
在轨 (已飞行4468 天)
发射日期:
2014-03-23 UTC
国别 :
俄罗斯(独联体) (CIS)
星等 :
--
Orbit Information
数据来源 国际轨道数据 AOE轨道数据
星历时间 2026-06-14T09:16:46+0800
2天前
查看轨道信息
2026-06-15T02:00:00+0800
1天前
查看轨道信息
半长轴 25507.929km 25508.025km
偏心率 0.0010478 0.0010493
轨道倾角 65.300° 65.299°
近地点辐角 325.464° 324.903°
升交点赤经 314.043° 314.019°
平近点角 34.453° 209.488°
近地点 19103.064km 19103.122km
远地点 19156.52km 19156.654km
周期 675.729分钟 675.733分钟
每日圈数 2.131032 2.13102
Detailed Information
平衡模式:
三轴稳定
覆盖范围:
全球
运营商:
列舍特涅夫卫星信息系统
运营商所在国:
俄罗斯
制造商(研发单位):
列舍特涅夫卫星信息系统
制造商所在国:
俄罗斯
使用方式:
暂无
Satellite Introduction
格洛纳斯(GLONASS )是苏联/俄罗斯研制卫星导航系统。标准配置为24颗卫星,其中18颗卫星就能保证该系统为俄罗斯境内用户提供全部服务。该卫星仍在工作。
2D Orbit Map
3D Orbit Map
Orbit Altitude Analysis Chart
Orbit Inclination Analysis Chart
Orbit Comprehensive Analysis Chart
View Comprehensive Chart